#timestamp,LO_Frequency,Hit,StdDev 
1627747215.4,286046986.6,N
1627747235.2,286046986.8,N
1627747255.0,286046984.2,N
1627747255.9,286046984.2,N
1627747275.8,286046982.3,N
1627747295.6,286046983.7,N
1627747315.5,286046988.9,N
1627747335.3,286046992.0,N
1627747355.1,286046993.2,N
1627747375.9,286046991.1,N
1627747395.7,286046994.2,N
1627747415.5,286047001.6,N
1627747435.4,286047004.2,N
1627747455.2,286047000.9,N
1627747475.1,286047005.0,N
1627747476.0,286047005.0,N
1627747495.8,286047001.6,N
1627747515.6,286047000.1,N
1627747535.5,286047000.5,N
1627747555.3,286046999.9,N
1627747575.1,286047000.0,N
1627747595.9,286047004.8,N
1627747615.7,286047008.7,N
1627747635.6,286047008.8,N
1627747655.4,286047007.5,N
1627747675.2,286047007.3,N
1627747695.1,286047007.2,N
1627747696.0,286047007.2,N
1627747715.8,286047004.6,N
1627747735.6,286047008.4,N
1627747755.5,286047008.3,N
1627747775.3,286047010.4,N
1627747795.2,286047007.8,N
1627747815.9,286047006.2,N
1627747835.7,286047008.6,N
1627747855.6,286047007.8,N
1627747875.4,286047008.0,N
1627747895.2,286047008.3,N
1627747915.1,286047006.2,N
1627747916.0,286047006.2,N
1627747935.8,286047003.7,N
1627747955.7,286047002.8,N
1627747975.5,286046996.1,N
1627747995.3,286046992.9,N
1627748015.2,286046993.2,N
1627748035.0,286046995.3,N
1627748035.9,286046995.3,N
1627748055.7,286047000.6,N
1627748075.6,286047000.5,N
1627748095.4,286046997.8,N
1627748115.3,286046991.2,N
1627748135.1,286046983.6,N
1627748136.0,286046983.6,N
1627748155.8,286046981.4,N
1627748175.7,286046984.7,N
1627748195.5,286046986.1,N
1627748215.4,286046988.2,N
1627748235.2,286046985.3,N
1627748255.0,286046988.1,N
1627748255.9,286046988.1,N
1627748275.8,286046986.9,N
1627748295.6,286046984.1,N
1627748315.5,286046985.1,N
1627748335.3,286046986.3,N
1627748355.1,286046984.2,N
1627748375.9,286046983.5,N
1627748395.7,286046983.9,N
1627748415.6,286046983.7,N
1627748435.4,286046987.6,N
1627748455.2,286046987.0,N
1627748475.1,286046989.5,N
1627748476.0,286046989.5,N
1627748495.8,286046989.0,N
1627748515.6,286046991.1,N
1627748535.5,286046989.5,N
1627748555.3,286046987.5,N
1627748575.2,286046987.0,N
1627748595.9,286046985.5,Y
1627748615.7,286046998.4,P
1627748635.6,286047000.9,N
1627748655.4,286047002.8,N
1627748675.3,286047000.6,N
1627748695.1,286047000.1,N
1627748696.0,286047000.1,N
1627748715.8,286047004.4,N
1627748735.7,286047003.0,N
1627748755.5,286047007.4,N
1627748775.3,286047007.3,N
1627748795.2,286047006.4,N
1627748815.0,286047007.2,N
1627748815.9,286047007.2,N
1627748835.8,286047003.3,N
1627748855.6,286047005.5,N
1627748875.4,286047007.5,N
1627748895.3,286047005.2,N
1627748915.1,286047005.3,N
1627748935.9,286047002.1,N
1627748955.7,286046999.8,N
1627748975.5,286047002.6,N
1627748995.4,286047004.8,N
1627749015.2,286047004.6,N
1627749035.0,286047002.9,N
1627749035.9,286047002.9,N
1627749055.8,286047005.8,N
1627749075.6,286047005.5,N
1627749095.5,286047003.1,N
1627749115.3,286047002.6,N
1627749135.1,286047002.8,N
1627749155.9,286047002.2,N
1627749175.7,286046998.2,N
1627749195.5,286046998.9,N
1627749215.4,286047001.0,N
1627749235.2,286046998.1,N
1627749255.1,286047001.1,N
1627749256.0,286047001.1,N
1627749275.8,286046995.3,N
1627749295.6,286046999.5,N
1627749315.5,286046999.1,N
1627749335.3,286046997.6,N
1627749355.2,286046999.1,N
1627749375.9,286046998.8,N
1627749395.7,286046998.3,N
1627749415.6,286047000.2,N
1627749435.4,286047001.5,N
1627749455.2,286047002.4,N
1627749475.1,286047002.6,N
1627749476.0,286047002.6,N
1627749495.8,286047003.7,N
1627749515.7,286047001.7,N
1627749535.5,286047001.6,N
1627749555.3,286047001.2,N
1627749575.2,286047000.0,N
1627749595.0,286047002.8,N
1627749595.9,286047002.8,N
1627749615.7,286046999.4,N
1627749635.6,286046998.5,N
1627749655.4,286047001.2,N
1627749675.3,286047000.2,N
1627749695.1,286047000.6,N
1627749715.8,286046999.3,N
1627749735.7,286047000.3,N
1627749755.5,286047004.2,N
1627749775.4,286047002.8,N
1627749795.2,286047002.3,N
1627749815.0,286047003.7,N
1627749815.9,286047003.7,N
1627749835.8,286047003.5,N
1627749855.6,286047003.3,N
1627749875.5,286047003.4,N
1627749895.3,286046997.1,N
1627749915.1,286046998.5,N
1627749935.9,286047002.3,N
1627749955.7,286047000.0,N
1627749975.5,286047000.6,N
1627749995.4,286046997.5,N
1627750015.2,286046995.0,N
1627750035.1,286046993.9,N
1627750036.0,286046993.9,N
1627750055.8,286046992.7,N
1627750075.6,286046986.3,Y
1627750095.5,286046985.7,P
1627750115.3,286046985.1,N
1627750135.2,286046983.8,N
1627750155.9,286046986.8,N
1627750175.7,286046987.1,N
1627750195.6,286046990.7,N
1627750215.4,286046992.3,N
1627750235.2,286046990.4,N
1627750255.1,286046989.9,N
1627750256.0,286046989.9,N
1627750275.8,286046986.5,Y
1627750295.7,286046997.7,P
1627750315.5,286046997.3,N
1627750335.3,286046993.7,N
1627750355.2,286046994.5,N
1627750375.0,286046991.6,N
1627750375.9,286046991.6,N
1627750395.7,286046987.7,Y
1627750415.6,286046994.3,P
1627750435.4,286046991.8,P
1627750455.3,286046994.0,P
1627750475.1,286046994.5,Y
1627750495.8,286046999.4,P
1627750515.7,286047000.7,N
1627750535.5,286046998.8,N
1627750555.3,286046997.8,N
1627750575.2,286046996.3,N
1627750595.0,286046996.6,N
1627750595.9,286046996.6,N
1627750615.8,286046999.5,N
1627750635.6,286046999.9,N
1627750655.4,286047001.6,N
1627750675.3,286047006.0,N
1627750695.1,286047006.0,N
1627750715.9,286047003.6,N
1627750735.7,286047005.6,N
1627750755.5,286047007.1,N
1627750775.4,286047006.6,N
1627750795.2,286047007.2,N
